Location: Arbon
(43.0005°N, 0.7472°E)
Time: 10:48:22
(UTC+00:00)

Vanguard 2 - All Passes

Search period start: 30 November 2020 00:00
Search period end: 10 December 2020 00:00
Orbit: 554 x 2937 km, 32.9° (Epoch: 29 November)

Date Brightness Start Highest point End Pass type
(mag) Time Alt. Az. Time Alt. Az. Time Alt. Az.
30 Nov - 08:36:19 10° SSW 08:40:31 17° SSE 08:43:51 10° SE daylight
30 Nov - 10:44:23 10° SW 10:48:26 23° S 10:51:46 10° SE daylight
30 Nov - 12:53:22 10° SW 12:55:55 16° SSW 12:58:28 10° SSE daylight
01 Dec - 06:48:02 10° S 06:49:46 11° SSE 06:51:21 10° SE daylight
01 Dec - 08:53:11 10° SW 08:58:16 21° S 09:02:06 10° ESE daylight
01 Dec - 11:02:02 10° WSW 11:06:06 24° S 11:09:27 10° SE daylight
01 Dec - 13:11:42 10° SW 13:13:31 13° SSW 13:15:18 10° S daylight
02 Dec - 07:02:42 10° SSW 07:07:35 16° SSE 07:11:26 10° SE daylight
02 Dec - 09:10:26 10° SW 09:16:00 25° S 09:20:03 10° ESE daylight
02 Dec - 11:19:49 10° WSW 11:23:44 23° S 11:27:00 10° SE daylight
03 Dec - 07:18:59 10° SSW 07:25:23 21° SSE 07:30:03 10° ESE daylight
03 Dec - 09:27:54 10° SW 09:33:43 28° S 09:37:52 10° ESE daylight
03 Dec - 11:37:44 10° WSW 11:41:20 20° SSW 11:44:24 10° SSE daylight
04 Dec - 05:29:34 10° S 05:34:07 13° SSE 05:37:57 10° SE visible
04 Dec - 07:35:50 10° SW 07:43:09 26° SSE 07:48:14 10° ESE daylight
04 Dec - 09:45:33 10° WSW 09:51:25 30° S 09:55:34 10° ESE daylight
04 Dec - 11:55:51 10° WSW 11:58:53 17° SSW 12:01:34 10° SSE daylight
05 Dec - 05:44:45 10° SSW 05:51:56 18° SSE 05:57:23 10° ESE visible
05 Dec - 07:53:02 10° SW 08:00:55 30° S 08:06:11 10° ESE daylight
05 Dec - 10:03:19 10° WSW 10:09:04 29° S 10:13:11 10° SE daylight
05 Dec - 12:14:24 10° SW 12:16:23 13° SSW 12:18:13 10° S daylight
06 Dec - 06:00:58 10° SSW 06:09:45 24° SSE 06:15:58 10° ESE visible
06 Dec - 08:10:29 10° WSW 08:18:41 34° S 08:24:02 10° ESE daylight
06 Dec - 10:21:12 10° WSW 10:26:41 27° SSW 10:30:41 10° SE daylight
07 Dec - 04:11:25 10° S 04:17:58 15° SSE 04:23:23 10° ESE visible
07 Dec - 06:17:44 10° SW 06:27:33 29° SSE 06:34:09 10° ESE visible
07 Dec - 08:28:07 10° WSW 08:36:24 37° S 08:41:45 10° ESE daylight
07 Dec - 10:39:11 10° WSW 10:44:14 24° SSW 10:48:01 10° SSE daylight
08 Dec - 04:26:31 10° SSW 04:35:45 20° SSE 04:42:48 10° ESE visible
08 Dec - 06:34:51 10° SW 06:45:21 35° S 06:52:08 10° ESE visible
08 Dec - 08:45:52 10° WSW 08:54:06 37° S 08:59:24 10° ESE daylight
08 Dec - 10:57:21 10° WSW 11:01:43 19° SSW 11:05:08 10° SSE daylight
09 Dec - 04:42:34 10° SSW 04:53:32 26° SSE 05:01:26 10° ESE visible
09 Dec - 06:52:15 10° SW 07:03:07 39° S 07:09:59 10° ESE daylight
09 Dec - 09:03:44 10° WSW 09:11:45 36° SSW 09:16:57 10° SE daylight
09 Dec - 11:15:51 10° WSW 11:19:07 15° SSW 11:21:50 10° S daylight
